Printer-friendly version
Follow the MPC on Twitter Follow the MPC on Facebook The MPC blog
Minor Planet Center

MPEC 2006-W97 : 2006 WQ127

The following Minor Planet Electronic Circular may be linked-to from your own Web pages, but must not otherwise be redistributed electronically.

A form allowing access to any MPEC is at the bottom of this page.


Read MPEC 2006-W96 Read MPEC 2006-W98


M.P.E.C. 2006-W97                                Issued 2006 Nov. 27, 12:07 UT

     The Minor Planet Electronic Circulars contain information on unusual
         minor planets and routine data on comets.  They are published
   on behalf of Commission 20 of the International Astronomical Union by the
          Minor Planet Center, Smithsonian Astrophysical Observatory,
                          Cambridge, MA 02138, U.S.A.

             Prepared using the Tamkin Foundation Computer Network

                              MPC@CFA.HARVARD.EDU
          URL http://cfa-www.harvard.edu/iau/mpc.html  ISSN 1523-6714

                                  2006 WQ127

Observations:
     K06WC7Q* C2006 11 25.34824 05 37 19.95 -22 43 36.3          19.8 V EW097703
     K06WC7Q  C2006 11 25.35483 05 37 21.00 -22 44 19.2          19.5 V EW097703
     K06WC7Q  C2006 11 25.36140 05 37 22.08 -22 45 02.0          19.8 V EW097703
     K06WC7Q  C2006 11 25.36793 05 37 23.05 -22 45 43.4          19.4 V EW097703
     K06WC7Q  C2006 11 25.39611 05 37 27.58 -22 48 46.7          19.5 V EW097703
     K06WC7Q  C2006 11 25.40117 05 37 28.30 -22 49 19.7          19.5 V EW097703
     K06WC7Q  C2006 11 25.40623 05 37 29.13 -22 49 52.8          19.6 V EW097703
     K06WC7Q  C2006 11 25.41127 05 37 29.96 -22 50 26.3          19.5 V EW097703
     K06WC7Q  C2006 11 25.48870 05 37 53.64 -22 56 53.3                 EW097E12
     K06WC7Q  C2006 11 25.48995 05 37 53.88 -22 57 02.0          19.4 V EW097E12
     K06WC7Q  C2006 11 25.49123 05 37 54.18 -22 57 10.0          20.0 V EW097E12
     K06WC7Q  C2006 11 25.50197 05 37 56.12 -22 58 22.0          19.5 V EW097E12
     K06WC7Q  C2006 11 25.50260 05 37 56.19 -22 58 28.2          19.4 V EW097E12
     K06WC7Q  C2006 11 25.50325 05 37 56.27 -22 58 33.8          19.3 V EW097E12
     K06WC7Q  C2006 11 25.50391 05 37 56.46 -22 58 37.1          20.0 V EW097E12
     K06WC7Q  C2006 11 26.32728 05 41 11.63 -24 40 40.6          19.6 V EW097F84
     K06WC7Q  C2006 11 26.35144 05 41 17.08 -24 44 10.1                 EW097F84
     K06WC7Q  C2006 11 26.64123 05 42 32.11 -25 25 32.3          19.5 V EW097E12
     K06WC7Q  C2006 11 26.64188 05 42 32.32 -25 25 38.1          19.2 V EW097E12
     K06WC7Q  C2006 11 26.64252 05 42 32.40 -25 25 43.5          19.2 V EW097E12
     K06WC7Q  C2006 11 26.64317 05 42 32.58 -25 25 49.4          19.3 V EW097E12
     K06WC7Q  C2006 11 26.64382 05 42 32.68 -25 25 53.7          19.5 V EW097E12
     K06WC7Q  C2006 11 26.64493 05 42 33.12 -25 26 05.3          19.1 V EW097E12
     K06WC7Q  C2006 11 26.64558 05 42 33.19 -25 26 09.7          19.7 V EW097E12
     K06WC7Q  C2006 11 26.64622 05 42 33.40 -25 26 17.0          19.5 V EW097E12
     K06WC7Q  C2006 11 26.64686 05 42 33.44 -25 26 23.1          19.7 V EW097E12
     K06WC7Q  C2006 11 26.64752 05 42 33.58 -25 26 28.7          18.7 V EW097E12
     K06WC7Q  C2006 11 27.27189 05 46 03.07 -27 11 18.0          19.8 R EW097854
     K06WC7Q  C2006 11 27.28022 05 46 05.77 -27 12 49.7          18.8 R EW097854

Observer details:
703 Catalina Sky Survey.  Observer R. A. Kowalski.  Measurers E. C. Beshore,
    E. J. Christensen, G. J. Garradd, A. R. Gibbs, A. D. Grauer, R. E. Hill,
    R. A. Kowalski, S. M. Larson, R. H. McNaught.  0.68-m Schmidt + CCD.
854 Sabino Canyon Observatory, Tucson.  Observer J. E. McGaha.  0.36-m f/10.0
    Schmidt-Cassegrain + CCD.
E12 Siding Spring Survey.  Observers G. J. Garradd, D. M. Burton.  Measurers
    E. C. Beshore, E. J. Christensen, G. J. Garradd, A. R. Gibbs, A. D. Grauer,
    R. E. Hill, R. A. Kowalski, S. M. Larson, R. H. McNaught.  0.5-m Uppsala
    Schmidt + CCD.
F84 Hibiscus Observatory, Punaauia.  Observer N. Teamo.  Measurer J. C. Pelle.
    0.35-m f/3.88 Schmidt-Cassegrain + 1392x1040 CCD.

Orbital elements:
2006 WQ127                                               Earth MOID = 0.0114 AU
Epoch 2006 Sept. 22.0 TT = JDT 2454000.5                MPC
M 278.15073              (2000.0)            P               Q
n   0.65750992     Peri.   87.40867     -0.89810827     -0.32361831
a   1.3097885      Node    73.57964     +0.16271861     -0.87359779
e   0.5087976      Incl.   18.08584     +0.40856358     -0.36345302
P   1.50           H   23.3           G   0.15           U   8
Residuals in seconds of arc
061125 703  0.1+  1.1+    061125 E12  0.8+  0.0     061126 E12  0.1-  0.1-
061125 703  0.2+  0.8+    061125 E12  0.6+  1.5+    061126 E12  0.8-  1.4+
061125 703  0.7+  0.5+    061125 E12  0.0   0.4-    061126 E12  1.5+  0.2-
061125 703  0.2-  1.2+    061125 E12  0.6-  1.6-    061126 E12  0.3+  1.2+
061125 703  0.2+  0.1+    061125 E12  0.4+  0.4-    061126 E12  1.1+  0.3-
061125 703  1.1-  0.2-    061126 F84  0.7+  1.2+    061126 E12  0.5-  0.7-
061125 703  0.9-  0.6-    061126 F84 (0.7-  3.0-)   061126 E12  0.7-  0.3-
061125 703  0.7-  1.5-    061126 E12  0.1-  0.5-    061127 854  0.8-  0.4-
061125 E12  0.2-  0.6-    061126 E12  0.6+  0.4-    061127 854  0.0   0.1-
061125 E12  0.1-  0.8-    061126 E12  0.4-  0.1-

Ephemeris:
2006 WQ127               a,e,i = 1.31, 0.51, 18                  q = 0.6434
Date    TT    R. A. (2000) Decl.     Delta      r     Elong.  Phase     V
2006 11 21    05 27.92   -17 32.4    0.124    1.079   134.9    40.4    20.5
2006 11 22    05 29.47   -18 24.2    0.114    1.070   134.3    41.3    20.3
2006 11 23    05 31.30   -19 25.0    0.104    1.062   133.6    42.3    20.2
2006 11 24    05 33.49   -20 37.5    0.0933   1.053   132.7    43.6    19.9
2006 11 25    05 36.21   -22 06.2    0.0832   1.044   131.4    45.2    19.7
2006 11 26    05 39.70   -23 57.7    0.0732   1.035   129.7    47.2    19.5
2006 11 27    05 44.39   -26 22.2    0.0633   1.026   127.4    49.8    19.2
2006 11 28    05 51.07   -29 37.1    0.0536   1.018   124.1    53.4    18.9
2006 11 29    06 01.40   -34 12.8    0.0441   1.009   119.3    58.6    18.6
2006 11 30    06 19.45   -41 03.6    0.0352   1.000   111.8    66.3    18.4
2006 12 01    06 58.26   -51 36.9    0.0274   0.991    99.6    78.9    18.2

Timothy B. Spahr             (C) Copyright 2006 MPC           M.P.E.C. 2006-W97

Read MPEC 2006-W96 Read MPEC 2006-W98


MPEC number:

Enter an MPEC number in one of the following forms:

  • 1997-B01 (the full form)
  • J97B01 (the packed version of the full form)
  • B01 (the abbreviated form)

Valid HTML 4.01!